Regional Weather Roundup
Issued by NWS New Orleans/Baton Rouge, LA

Home | Current Version | Previous Version | Text Only | Print | Product List | Glossary On
Versions: 1 2 3 4 5 6 7 8 9 10 11 12 13 14 15 16 17 18 19 20 21 22 23 24 25 26 27 28 29 30 31 32 33 34 35 36 37 38 39 40 41 42 43 44 45 46 47 48 49 50
000
ASUS44 KLIX 221410
RWRLIX
NEW ORLEANS REGIONAL WEATHER ROUNDUP
NATIONAL WEATHER SERVICE NEW ORLEANS LA
800 AM CST SAT NOV 22 2014

NOTE: "FAIR" INDICATES FEW OR NO CLOUDS BELOW 12,000 FEET WITH NO
      SIGNIFICANT WEATHER AND/OR OBSTRUCTIONS TO VISIBILITY.
      SKY/WX - SKY CONDITION AND SIGNIFICANT WEATHER.
      TMP - AIR TEMPERATURE.     DP    - DEWPOINT TEMPERATURE.
      RH  - RELATIVE HUMIDITY.   PRES  - PRESSURE.
      HI  - HEAT INDEX.          WCI   - WIND CHILL INDEX.

*  THESE STATIONS ARE NOT NWS OR FAA STATIONS AND ARE NOT UNDER
   NWS QUALITY CONTROL.

LAZ038-040-048-061>063-065>067-069-221500-
SOUTHEAST LOUISIANA

CITY           SKY/WX    TMP DP  RH WIND       PRES   REMARKS
N.O. AUDUBON     N/A     61  54  78 MISG        N/A
N.O. INTL ARPT MOSUNNY   59  52  77 E7        30.21S
N.O. LAKEFRONT MOSUNNY   59  52  77 E12       30.23R
N.O. DOWNTOWN*   N/A     57  48  72 NE5       30.23R
SLIDELL        SUNNY     54  48  80 E5        30.23S
BATON ROUGE    MOSUNNY   55  49  80 E9        30.21F
BOOTHVILLE     SUNNY     65  60  84 E7        30.21R
BELLE CHASSE   PTSUNNY   59  53  80 E8        30.22R
BOGALUSA*        N/A     52  47  84 CALM      30.27S
NEW ROADS*       N/A     57  49  74 E9        30.20F
GONZALES*      CLOUDY    57  54  89 E5        30.20S
HAMMOND*       MOSUNNY   55  46  71 E7        30.24S
HOUMA*         NOT AVBL
PORT FOURCHON* SUNNY     63  59  88 NE7       30.22S

$$

MSZ070-080>082-221500-
SOUTHERN MISSISSIPPI

CITY           SKY/WX    TMP DP  RH WIND       PRES   REMARKS
MCCOMB         SUNNY     53  44  71 VRB6      30.25R
GULFPORT       SUNNY     57  47  69 E5        30.26R
BILOXI         SUNNY     58  47  67 E10       30.25R
PASCAGOULA     SUNNY     57  45  64 E7        30.27R
STENNIS ARPT*  SUNNY     57  46  67 E7        30.25R

$$

COASTAL OBSERVATIONS
LAKE AND NEARSHORE STATIONS

STATION/POSITION TIME  TEMP    WIND        PRES    WAVE
                       AIR SEA DIR/SP/G            HT/PER
                 (UTC) (F)     (DEG/KT/KT) (MB)    (FT/S)
PASCAGOULA       1400   58      70/ 13/ 18 1024.0
WAVELAND YACHT   1400   55      40/  5/  7 1023.5
GRAND ISLE       1400   62 61   70/  7/ 10 1023.0
SOUTHWEST PASS   1400   70 71              1022.5
NEW CANAL        1400   57 53   70/  8/ 10 1023.6
SHELL BEACH      1400   58 51   70/ 13/ 14 1023.2

OFFSHORE STATIONS

STATION/POSITION TIME  TEMP    WIND        PRES    WAVE
                       AIR SEA DIR/SP/G            HT/PER
                 (UTC) (F)     (DEG/KT/KT) (MB)    (FT/S)
64 S DAUPHIN ISL 1341   70 72   90/ 19/ 23 1023.4    6/ 7

$$




USA.gov is the U.S. government's official web portal to all federal, state and local government web resources and services.